Location: Unspecified
(0.0000°N, 0.0000°E)
Time: 01:27:46
(UTC+00:00)

A-11 Canister half - Pass Details

Date: 26 November 2019
Orbit: 1515 x 1685 km, 47.2° (Epoch: 10 December)

Event Time Altitude Azimuth Distance (km) Brightness Sun altitude
Rises 13:03:44 0° 226° (SW) 4,700 12.0 61.9°
Reaches altitude 10° 13:06:46 10° 228° (SW) 3,734 11.7 61.4°
Maximum altitude 13:16:10 69° 309° (NW) 1,684 10.4 59.8°
Drops below altitude 10° 13:25:56 10° 32° (NNE) 3,859 10.9 58.1°
Sets 13:29:08 0° 34° (NE) 4,865 11.3 57.5°
